Time,TemperatureF,DewpointF,PressureIn,WindDirection,WindDirectionDegrees,WindSpeedMPH,WindSpeedGustMPH,Humidity,HourlyPrecipIn,Conditions,Clouds,dailyrainin,SoftwareType,DateUTC
2013-05-04 00:00:00,43.3,42.2,30.33,NNW,342,4.0,4.0,96,0.00,,,0.00,Wunderground v.1.15,2013-05-04 04:00:00,
2013-05-04 00:10:00,43.3,42.2,30.33,NNE,22,3.0,37.0,96,0.00,,,0.00,Wunderground v.1.15,2013-05-04 04:10:00,
2013-05-04 00:20:00,43.5,42.4,30.33,NNE,15,5.0,5.0,96,0.00,,,0.00,Wunderground v.1.15,2013-05-04 04:20:00,
2013-05-04 00:30:00,43.6,42.5,30.32,NNW,338,4.0,37.0,96,0.00,,,0.00,Wunderground v.1.15,2013-05-04 04:30:00,
2013-05-04 00:40:00,43.7,42.6,30.32,North,9,3.0,37.0,96,0.00,,,0.00,Wunderground v.1.15,2013-05-04 04:40:00,
2013-05-04 00:50:00,44.1,42.8,30.32,North,8,5.0,37.0,95,0.00,,,0.00,Wunderground v.1.15,2013-05-04 04:50:00,
2013-05-04 01:00:00,44.4,43.1,30.31,NNW,340,6.0,6.0,95,0.00,,,0.00,Wunderground v.1.15,2013-05-04 05:00:00,
2013-05-04 01:10:00,44.5,42.9,30.31,NNE,15,5.0,5.0,94,0.00,,,0.00,Wunderground v.1.15,2013-05-04 05:10:00,
2013-05-04 01:20:00,44.3,43.0,30.31,NNE,18,3.0,3.0,95,0.00,,,0.00,Wunderground v.1.15,2013-05-04 05:20:00,
2013-05-04 01:30:00,44.4,43.1,30.31,NNE,30,4.0,37.0,95,0.00,,,0.00,Wunderground v.1.15,2013-05-04 05:30:00,
2013-05-04 01:40:00,44.5,42.9,30.30,NNE,23,6.0,6.0,94,0.00,,,0.00,Wunderground v.1.15,2013-05-04 05:40:00,
2013-05-04 01:50:00,44.5,42.9,30.30,North,359,5.0,37.0,94,0.00,,,0.00,Wunderground v.1.15,2013-05-04 05:50:00,
2013-05-04 02:00:00,44.5,42.9,30.30,North,356,6.0,37.0,94,0.00,,,0.00,Wunderground v.1.15,2013-05-04 06:00:00,
2013-05-04 02:10:00,44.6,43.0,30.30,North,11,7.0,37.0,94,0.00,,,0.00,Wunderground v.1.15,2013-05-04 06:10:00,
2013-05-04 02:20:00,44.6,43.0,30.29,North,11,7.0,37.0,94,0.00,,,0.00,Wunderground v.1.15,2013-05-04 06:20:00,
2013-05-04 02:30:00,44.6,43.0,30.29,NNW,340,6.0,6.0,94,0.00,,,0.00,Wunderground v.1.15,2013-05-04 06:30:00,
2013-05-04 02:40:00,44.5,42.9,30.29,NNE,27,5.0,37.0,94,0.00,,,0.00,Wunderground v.1.15,2013-05-04 06:40:00,
2013-05-04 02:50:00,44.5,42.9,30.28,NW,324,6.0,6.0,94,0.00,,,0.00,Wunderground v.1.15,2013-05-04 06:50:00,
2013-05-04 03:00:00,44.5,42.9,30.29,North,352,7.0,37.0,94,0.00,,,0.00,Wunderground v.1.15,2013-05-04 07:00:00,
2013-05-04 03:10:00,44.6,43.0,30.28,NNE,31,7.0,37.0,94,0.00,,,0.00,Wunderground v.1.15,2013-05-04 07:10:00,
2013-05-04 03:20:00,44.5,42.9,30.28,NNE,23,6.0,37.0,94,0.00,,,0.00,Wunderground v.1.15,2013-05-04 07:20:00,
2013-05-04 03:30:00,44.5,42.9,30.28,NNE,26,6.0,37.0,94,0.00,,,0.00,Wunderground v.1.15,2013-05-04 07:30:00,
2013-05-04 03:40:00,44.6,43.0,30.28,NNE,21,7.0,37.0,94,0.00,,,0.00,Wunderground v.1.15,2013-05-04 07:40:00,
2013-05-04 03:50:00,44.6,43.0,30.28,NNE,27,6.0,6.0,94,0.00,,,0.00,Wunderground v.1.15,2013-05-04 07:50:00,
2013-05-04 04:00:00,44.5,42.6,30.28,NNE,19,7.0,37.0,93,0.00,,,0.00,Wunderground v.1.15,2013-05-04 08:00:00,
2013-05-04 04:10:00,44.6,42.7,30.28,NNE,23,8.0,37.0,93,0.00,,,0.00,Wunderground v.1.15,2013-05-04 08:10:00,
2013-05-04 04:20:00,44.5,42.6,30.28,NNE,22,6.0,37.0,93,0.00,,,0.00,Wunderground v.1.15,2013-05-04 08:20:00,
2013-05-04 04:30:00,44.4,42.2,30.28,NE,43,5.0,37.0,92,0.00,,,0.00,Wunderground v.1.15,2013-05-04 08:30:00,
2013-05-04 04:40:00,44.5,42.3,30.28,NNE,18,6.0,37.0,92,0.00,,,0.00,Wunderground v.1.15,2013-05-04 08:40:00,
2013-05-04 04:50:00,44.3,42.1,30.28,NE,49,5.0,37.0,92,0.00,,,0.00,Wunderground v.1.15,2013-05-04 08:50:00,
2013-05-04 05:00:00,44.4,42.2,30.28,North,352,6.0,6.0,92,0.00,,,0.00,Wunderground v.1.15,2013-05-04 09:00:00,
2013-05-04 05:10:00,44.3,42.1,30.29,NNE,30,5.0,37.0,92,0.00,,,0.00,Wunderground v.1.15,2013-05-04 09:10:00,
2013-05-04 05:20:00,44.4,42.2,30.28,NNE,18,7.0,7.0,92,0.00,,,0.00,Wunderground v.1.15,2013-05-04 09:20:00,
2013-05-04 05:30:00,44.3,41.8,30.29,NNE,30,6.0,6.0,91,0.00,,,0.00,Wunderground v.1.15,2013-05-04 09:30:00,
2013-05-04 05:40:00,44.2,41.7,30.29,NNE,18,5.0,37.0,91,0.00,,,0.00,Wunderground v.1.15,2013-05-04 09:40:00,
2013-05-04 05:50:00,44.4,41.9,30.29,NNE,23,6.0,6.0,91,0.00,,,0.00,Wunderground v.1.15,2013-05-04 09:50:00,
2013-05-04 06:00:00,44.7,42.2,30.29,North,1,6.0,6.0,91,0.00,,,0.00,Wunderground v.1.15,2013-05-04 10:00:00,
2013-05-04 06:10:00,45.0,42.0,30.30,NNE,23,7.0,7.0,89,0.00,,,0.00,Wunderground v.1.15,2013-05-04 10:10:00,
2013-05-04 06:20:00,45.3,42.0,30.30,NE,48,8.0,37.0,88,0.00,,,0.00,Wunderground v.1.15,2013-05-04 10:20:00,
2013-05-04 06:30:00,45.6,42.3,30.30,NNE,24,7.0,37.0,88,0.00,,,0.00,Wunderground v.1.15,2013-05-04 10:30:00,
2013-05-04 06:40:00,45.8,42.2,30.30,NNE,29,9.0,9.0,87,0.00,,,0.00,Wunderground v.1.15,2013-05-04 10:40:00,
2013-05-04 06:50:00,45.9,41.9,30.30,North,5,8.0,8.0,86,0.00,,,0.00,Wunderground v.1.15,2013-05-04 10:50:00,
2013-05-04 07:00:00,46.2,42.2,30.30,NNW,347,8.0,8.0,86,0.00,,,0.00,Wunderground v.1.15,2013-05-04 11:00:00,
2013-05-04 07:10:00,46.5,42.2,30.30,NNE,23,7.0,7.0,85,0.00,,,0.00,Wunderground v.1.15,2013-05-04 11:10:00,
2013-05-04 07:20:00,46.5,41.9,30.30,NNE,30,10.0,10.0,84,0.00,,,0.00,Wunderground v.1.15,2013-05-04 11:20:00,
2013-05-04 07:30:00,46.7,42.1,30.30,NE,41,8.0,8.0,84,0.00,,,0.00,Wunderground v.1.15,2013-05-04 11:30:00,
2013-05-04 07:40:00,46.7,42.1,30.30,ENE,62,10.0,10.0,84,0.00,,,0.00,Wunderground v.1.15,2013-05-04 11:40:00,
2013-05-04 07:51:00,47.0,42.4,30.30,North,8,9.0,37.0,84,0.00,,,0.00,Wunderground v.1.15,2013-05-04 11:51:00,
2013-05-04 08:00:00,47.2,42.3,30.30,NE,40,9.0,37.0,83,0.00,,,0.00,Wunderground v.1.15,2013-05-04 12:00:00,
2013-05-04 08:10:00,47.6,42.7,30.31,NNE,30,8.0,8.0,83,0.00,,,0.00,Wunderground v.1.15,2013-05-04 12:10:00,
2013-05-04 08:21:00,47.7,42.5,30.31,NNW,333,7.0,37.0,82,0.00,,,0.00,Wunderground v.1.15,2013-05-04 12:21:00,
2013-05-04 08:30:00,47.7,42.5,30.31,NE,51,9.0,9.0,82,0.00,,,0.00,Wunderground v.1.15,2013-05-04 12:30:00,
2013-05-04 08:40:00,48.2,43.0,30.31,East,79,7.0,7.0,82,0.00,,,0.00,Wunderground v.1.15,2013-05-04 12:40:00,
2013-05-04 08:50:00,47.7,42.2,30.31,NNE,33,10.0,37.0,81,0.00,,,0.00,Wunderground v.1.15,2013-05-04 12:50:00,
2013-05-04 09:00:00,47.6,41.7,30.30,NNW,332,10.0,10.0,80,0.00,,,0.00,Wunderground v.1.15,2013-05-04 13:00:00,
2013-05-04 09:10:00,47.6,41.7,30.31,NE,56,11.0,11.0,80,0.00,,,0.00,Wunderground v.1.15,2013-05-04 13:10:00,
2013-05-04 09:20:00,48.3,41.8,30.31,East,101,8.0,8.0,78,0.00,,,0.00,Wunderground v.1.15,2013-05-04 13:20:00,
2013-05-04 09:30:00,48.1,41.6,30.31,NNE,13,8.0,37.0,78,0.00,,,0.00,Wunderground v.1.15,2013-05-04 13:30:00,
2013-05-04 09:40:00,48.0,41.5,30.31,NNE,30,11.0,37.0,78,0.00,,,0.00,Wunderground v.1.15,2013-05-04 13:40:00,
2013-05-04 09:50:00,48.4,41.2,30.31,ENE,58,10.0,37.0,76,0.00,,,0.00,Wunderground v.1.15,2013-05-04 13:50:00,
2013-05-04 10:00:00,48.6,41.4,30.31,NE,54,9.0,9.0,76,0.00,,,0.00,Wunderground v.1.15,2013-05-04 14:00:00,
2013-05-04 10:10:00,48.4,41.5,30.31,North,8,11.0,37.0,77,0.00,,,0.00,Wunderground v.1.15,2013-05-04 14:10:00,
2013-05-04 10:20:00,48.5,41.3,30.31,ESE,110,10.0,10.0,76,0.00,,,0.00,Wunderground v.1.15,2013-05-04 14:20:00,
2013-05-04 10:30:00,48.9,41.0,30.31,NNW,347,10.0,37.0,74,0.00,,,0.00,Wunderground v.1.15,2013-05-04 14:30:00,
2013-05-04 10:40:00,48.7,41.1,30.31,NE,34,11.0,11.0,75,0.00,,,0.00,Wunderground v.1.15,2013-05-04 14:40:00,
2013-05-04 10:50:00,48.5,40.6,30.31,NE,47,11.0,37.0,74,0.00,,,0.00,Wunderground v.1.15,2013-05-04 14:50:00,
2013-05-04 11:00:00,49.1,41.5,30.32,NNE,33,11.0,37.0,75,0.00,,,0.00,Wunderground v.1.15,2013-05-04 15:00:00,
2013-05-04 11:10:00,49.0,40.7,30.32,NE,49,11.0,37.0,73,0.00,,,0.00,Wunderground v.1.15,2013-05-04 15:10:00,
2013-05-04 11:20:00,49.2,40.9,30.32,NE,44,11.0,37.0,73,0.00,,,0.00,Wunderground v.1.15,2013-05-04 15:20:00,
2013-05-04 11:30:00,49.1,41.2,30.32,NW,308,11.0,37.0,74,0.00,,,0.00,Wunderground v.1.15,2013-05-04 15:30:00,
2013-05-04 11:40:00,49.4,40.7,30.31,North,4,11.0,37.0,72,0.00,,,0.00,Wunderground v.1.15,2013-05-04 15:40:00,
2013-05-04 11:50:00,48.8,40.9,30.31,ENE,64,12.0,12.0,74,0.00,,,0.00,Wunderground v.1.15,2013-05-04 15:50:00,
2013-05-04 12:00:00,49.1,41.2,30.31,NE,36,12.0,37.0,74,0.00,,,0.00,Wunderground v.1.15,2013-05-04 16:00:00,
2013-05-04 12:10:00,49.0,41.1,30.31,North,355,12.0,12.0,74,0.00,,,0.00,Wunderground v.1.15,2013-05-04 16:10:00,
2013-05-04 12:20:00,49.8,41.1,30.31,ENE,67,10.0,37.0,72,0.00,,,0.00,Wunderground v.1.15,2013-05-04 16:20:00,
2013-05-04 12:30:00,49.3,41.7,30.31,ENE,74,12.0,37.0,75,0.00,,,0.00,Wunderground v.1.15,2013-05-04 16:30:00,
2013-05-04 12:40:00,48.9,41.7,30.31,NE,44,12.0,12.0,76,0.00,,,0.00,Wunderground v.1.15,2013-05-04 16:40:00,
2013-05-04 12:50:00,49.3,40.3,30.31,ENE,58,13.0,13.0,71,0.00,,,0.00,Wunderground v.1.15,2013-05-04 16:50:00,
2013-05-04 13:00:00,50.0,41.3,30.31,NNE,12,9.0,9.0,72,0.00,,,0.00,Wunderground v.1.15,2013-05-04 17:00:00,
2013-05-04 13:10:00,50.5,40.7,30.31,NE,34,9.0,37.0,69,0.00,,,0.00,Wunderground v.1.15,2013-05-04 17:10:00,
2013-05-04 13:20:00,49.3,39.6,30.31,NE,49,12.0,37.0,69,0.00,,,0.00,Wunderground v.1.15,2013-05-04 17:20:00,
2013-05-04 13:30:00,48.5,39.9,30.32,NNE,25,14.0,14.0,72,0.00,,,0.00,Wunderground v.1.15,2013-05-04 17:30:00,
2013-05-04 13:40:00,49.1,39.7,30.31,NNE,18,12.0,12.0,70,0.00,,,0.00,Wunderground v.1.15,2013-05-04 17:40:00,
2013-05-04 13:50:00,49.1,39.7,30.31,North,1,11.0,37.0,70,0.00,,,0.00,Wunderground v.1.15,2013-05-04 17:50:00,
2013-05-04 14:00:00,49.4,40.0,30.31,North,359,11.0,37.0,70,0.00,,,0.00,Wunderground v.1.15,2013-05-04 18:00:00,
2013-05-04 14:10:00,48.8,39.8,30.31,NE,37,12.0,37.0,71,0.00,,,0.00,Wunderground v.1.15,2013-05-04 18:10:00,
2013-05-04 14:20:00,49.0,40.4,30.30,NNW,334,11.0,11.0,72,0.00,,,0.00,Wunderground v.1.15,2013-05-04 18:20:00,
2013-05-04 14:30:00,49.2,40.2,30.30,ESE,111,11.0,11.0,71,0.00,,,0.00,Wunderground v.1.15,2013-05-04 18:30:00,
2013-05-04 14:40:00,48.1,39.5,30.30,NE,48,14.0,37.0,72,0.00,,,0.00,Wunderground v.1.15,2013-05-04 18:40:00,
2013-05-04 14:50:00,48.1,38.8,30.30,NE,56,13.0,13.0,70,0.00,,,0.00,Wunderground v.1.15,2013-05-04 18:50:00,
2013-05-04 15:00:00,48.4,39.4,30.30,ENE,67,13.0,13.0,71,0.00,,,0.00,Wunderground v.1.15,2013-05-04 19:00:00,
2013-05-04 15:10:00,48.8,39.8,30.29,NNW,341,10.0,37.0,71,0.00,,,0.00,Wunderground v.1.15,2013-05-04 19:10:00,
2013-05-04 15:20:00,48.9,40.3,30.29,North,1,11.0,11.0,72,0.00,,,0.00,Wunderground v.1.15,2013-05-04 19:20:00,
2013-05-04 15:30:00,48.1,39.9,30.29,ENE,64,12.0,37.0,73,0.00,,,0.00,Wunderground v.1.15,2013-05-04 19:30:00,
2013-05-04 15:40:00,47.8,39.9,30.29,NNE,20,12.0,37.0,74,0.00,,,0.00,Wunderground v.1.15,2013-05-04 19:40:00,
2013-05-04 15:50:00,47.4,39.9,30.29,NE,40,14.0,37.0,75,0.00,,,0.00,Wunderground v.1.15,2013-05-04 19:50:00,
2013-05-04 16:00:00,47.7,40.2,30.29,NNE,33,12.0,37.0,75,0.00,,,0.00,Wunderground v.1.15,2013-05-04 20:00:00,
2013-05-04 16:10:00,48.0,40.5,30.29,NE,46,11.0,37.0,75,0.00,,,0.00,Wunderground v.1.15,2013-05-04 20:10:00,
2013-05-04 16:20:00,48.3,40.7,30.29,ENE,74,10.0,37.0,75,0.00,,,0.00,Wunderground v.1.15,2013-05-04 20:20:00,
2013-05-04 16:30:00,47.8,40.3,30.29,WNW,293,11.0,11.0,75,0.00,,,0.00,Wunderground v.1.15,2013-05-04 20:30:00,
2013-05-04 16:40:00,47.6,40.1,30.29,ENE,66,11.0,37.0,75,0.00,,,0.00,Wunderground v.1.15,2013-05-04 20:40:00,
2013-05-04 16:50:00,47.6,40.4,30.28,NNE,24,11.0,11.0,76,0.00,,,0.00,Wunderground v.1.15,2013-05-04 20:50:00,
2013-05-04 17:00:00,48.2,40.6,30.28,NE,39,9.0,37.0,75,0.00,,,0.00,Wunderground v.1.15,2013-05-04 21:00:00,
2013-05-04 17:10:00,47.4,40.2,30.29,NE,53,11.0,11.0,76,0.00,,,0.00,Wunderground v.1.15,2013-05-04 21:10:00,
2013-05-04 17:20:00,46.9,39.7,30.29,NNE,26,11.0,11.0,76,0.00,,,0.00,Wunderground v.1.15,2013-05-04 21:20:00,
2013-05-04 17:30:00,47.4,40.6,30.29,North,354,9.0,9.0,77,0.00,,,0.00,Wunderground v.1.15,2013-05-04 21:30:00,
2013-05-04 17:40:00,47.3,40.5,30.28,NNE,30,10.0,10.0,77,0.00,,,0.00,Wunderground v.1.15,2013-05-04 21:40:00,
2013-05-04 17:50:00,47.2,40.7,30.28,NNE,16,10.0,37.0,78,0.00,,,0.00,Wunderground v.1.15,2013-05-04 21:50:00,
2013-05-04 18:00:00,46.9,40.4,30.28,NNE,29,10.0,10.0,78,0.00,,,0.00,Wunderground v.1.15,2013-05-04 22:00:00,
2013-05-04 18:10:00,46.7,40.5,30.28,NE,37,8.0,8.0,79,0.00,,,0.00,Wunderground v.1.15,2013-05-04 22:10:00,
2013-05-04 18:20:00,46.9,40.7,30.28,NE,37,8.0,37.0,79,0.00,,,0.00,Wunderground v.1.15,2013-05-04 22:20:00,
2013-05-04 18:30:00,46.7,40.5,30.28,NNW,338,7.0,7.0,79,0.00,,,0.00,Wunderground v.1.15,2013-05-04 22:30:00,
2013-05-04 18:40:00,46.3,40.5,30.28,North,9,7.0,37.0,80,0.00,,,0.00,Wunderground v.1.15,2013-05-04 22:40:00,
2013-05-04 18:50:00,46.0,40.2,30.28,NNE,33,8.0,37.0,80,0.00,,,0.00,Wunderground v.1.15,2013-05-04 22:50:00,
2013-05-04 19:00:00,45.7,40.2,30.27,NNE,23,9.0,37.0,81,0.00,,,0.00,Wunderground v.1.15,2013-05-04 23:00:00,
2013-05-04 19:10:00,45.6,40.4,30.27,NE,40,8.0,37.0,82,0.00,,,0.00,Wunderground v.1.15,2013-05-04 23:10:00,
2013-05-04 19:20:00,45.3,40.4,30.27,ENE,61,7.0,37.0,83,0.00,,,0.00,Wunderground v.1.15,2013-05-04 23:20:00,
2013-05-04 19:30:00,45.0,40.1,30.27,NNE,15,6.0,6.0,83,0.00,,,0.00,Wunderground v.1.15,2013-05-04 23:30:00,
2013-05-04 19:40:00,44.7,40.8,30.27,NE,40,6.0,37.0,86,0.00,,,0.00,Wunderground v.1.15,2013-05-04 23:40:00,
2013-05-04 19:50:00,44.5,40.6,30.27,NE,39,7.0,37.0,86,0.00,,,0.00,Wunderground v.1.15,2013-05-04 23:50:00,
2013-05-04 20:00:00,44.4,40.8,30.28,NNE,15,7.0,37.0,87,0.00,,,0.00,Wunderground v.1.15,2013-05-05 00:00:00,
2013-05-04 20:10:00,44.3,41.0,30.28,NNE,33,6.0,6.0,88,0.00,,,0.00,Wunderground v.1.15,2013-05-05 00:10:00,
2013-05-04 20:20:00,44.1,40.5,30.28,NNE,23,6.0,6.0,87,0.00,,,0.00,Wunderground v.1.15,2013-05-05 00:20:00,
2013-05-04 20:30:00,44.1,40.8,30.28,NE,55,6.0,6.0,88,0.00,,,0.00,Wunderground v.1.15,2013-05-05 00:30:00,
2013-05-04 20:40:00,44.2,40.6,30.28,NNE,24,6.0,37.0,87,0.00,,,0.00,Wunderground v.1.15,2013-05-05 00:40:00,
2013-05-04 20:50:00,44.1,40.5,30.28,NE,39,5.0,5.0,87,0.00,,,0.00,Wunderground v.1.15,2013-05-05 00:50:00,
2013-05-04 21:00:00,44.1,40.5,30.28,NNE,18,6.0,37.0,87,0.00,,,0.00,Wunderground v.1.15,2013-05-05 01:00:00,
2013-05-04 21:10:00,44.1,40.5,30.29,NNE,22,6.0,6.0,87,0.00,,,0.00,Wunderground v.1.15,2013-05-05 01:10:00,
2013-05-04 21:20:00,44.1,40.5,30.29,North,359,6.0,6.0,87,0.00,,,0.00,Wunderground v.1.15,2013-05-05 01:20:00,
2013-05-04 21:30:00,44.1,40.5,30.29,NNE,13,7.0,37.0,87,0.00,,,0.00,Wunderground v.1.15,2013-05-05 01:30:00,
2013-05-04 21:40:00,44.0,40.7,30.29,NNE,30,6.0,37.0,88,0.00,,,0.00,Wunderground v.1.15,2013-05-05 01:40:00,
2013-05-04 21:50:00,44.0,40.7,30.29,ENE,76,7.0,7.0,88,0.00,,,0.00,Wunderground v.1.15,2013-05-05 01:50:00,
2013-05-04 22:00:00,44.0,40.7,30.28,NNE,23,7.0,37.0,88,0.00,,,0.00,Wunderground v.1.15,2013-05-05 02:00:00,
2013-05-04 22:10:00,44.0,41.0,30.29,NE,43,6.0,37.0,89,0.00,,,0.00,Wunderground v.1.15,2013-05-05 02:10:00,
2013-05-04 22:20:00,44.0,41.0,30.29,North,358,7.0,37.0,89,0.00,,,0.00,Wunderground v.1.15,2013-05-05 02:20:00,
2013-05-04 22:30:00,44.0,41.0,30.28,NNE,30,6.0,37.0,89,0.00,,,0.00,Wunderground v.1.15,2013-05-05 02:30:00,
2013-05-04 22:40:00,44.1,41.1,30.28,NNW,340,7.0,7.0,89,0.00,,,0.00,Wunderground v.1.15,2013-05-05 02:40:00,
2013-05-04 22:50:00,44.0,41.0,30.28,NNW,340,4.0,4.0,89,0.00,,,0.00,Wunderground v.1.15,2013-05-05 02:50:00,
2013-05-04 23:00:00,44.0,41.0,30.28,NNW,346,6.0,37.0,89,0.00,,,0.00,Wunderground v.1.15,2013-05-05 03:00:00,
2013-05-04 23:10:00,44.1,41.1,30.28,NNE,26,6.0,37.0,89,0.00,,,0.00,Wunderground v.1.15,2013-05-05 03:10:00,
2013-05-04 23:20:00,44.1,41.1,30.27,North,9,7.0,37.0,89,0.00,,,0.00,Wunderground v.1.15,2013-05-05 03:20:00,
2013-05-04 23:30:00,44.1,41.1,30.27,NNE,20,8.0,37.0,89,0.00,,,0.00,Wunderground v.1.15,2013-05-05 03:30:00,
2013-05-04 23:40:00,44.1,41.4,30.27,NE,50,8.0,8.0,90,0.00,,,0.00,Wunderground v.1.15,2013-05-05 03:40:00,
2013-05-04 23:50:00,44.0,41.3,30.27,NE,44,6.0,37.0,90,0.00,,,0.00,Wunderground v.1.15,2013-05-05 03:50:00,